Regional Weather Roundup
Issued by NWS

Home | Current Version | Previous Version | Graphics & Text | Print | Product List | Glossary On
Versions: 1 2 3 4 5 6 7 8 9 10 11 12 13 14 15 16 17 18 19 20 21 22 23 24 25 26 27 28 29 30 31 32 33 34 35 36 37 38 39 40 41 42 43 44 45 46 47 48 49 50
580
ASUS44 KJAN 231710
RWRMS

MISSISSIPPI HOURLY WEATHER ROUNDUP
NATIONAL WEATHER SERVICE JACKSON MS
1200 PM CDT WED JUL 23 2014

NOTE: "FAIR: INDICATES FEW OR NO CLOUDS BELOW 12,000 FEET WITH NO
SIGNIFICANT WEATHER AND/OR OBSTRUCTIONS TO VISIBILITY.

MSZ001>002-007>008-010>013-018>021-025>028-034>036-231800-
NORTHWEST MISSISSIPPI

CITY           SKY/WX    TMP DP  RH WIND       PRES   REMARKS
CLARKSDALE     FAIR      86  75  70 CALM      30.07F HX  95
CLEVELAND      FAIR      85  76  74 CALM      30.06S HX  95
GREENWOOD      MOSUNNY   85  75  72 VRB3      30.07S HX  93
GREENVILLE     SUNNY     88  73  61 E5        30.06S HX  95
GRENADA        FAIR      86  73  66 CALM      30.07F HX  93
OLIVE BRANCH   PTSUNNY   84  77  79 SW6       30.07S HX  94
OXFORD         FAIR      84  68  58 S3        30.08F
TUNICA         MOSUNNY   86  72  62 CALM      30.08R HX  92
$$

MSZ003>006-009-014>017-022>024-029>033-037>039-231800-
NORTHEAST MISSISSIPPI

CITY           SKY/WX    TMP DP  RH WIND       PRES   REMARKS
BELMONT        FAIR      83  75  76 W3        30.08F HX  90
COLUMBUS AFB   CLOUDY    86  72  62 CALM      30.08S HX  92
CORINTH        FAIR      86  72  62 CALM      30.07F HX  92
GOLDN TRIANGLE PTSUNNY   84  72  65 SE5       30.09S
STARKVILLE     PTSUNNY   84  72  65 CALM      30.08S
TUPELO         MOSUNNY   84  72  67 S8        30.07S
$$

MSZ040-058-231800-
CENTRAL MISSISSIPPI

CITY           SKY/WX    TMP DP  RH WIND       PRES   REMARKS
JACKSON INTL   PTSUNNY   86  71  60 CALM      30.07S HX  91
JACKSON HAWKNS PTSUNNY   84  72  65 MISG      30.07F
MERIDIAN KEY   MOSUNNY   86  70  58 CALM      30.07S HX  90
MERIDIAN NAS   PTSUNNY   84  71  65 SE3       30.08F
RAYMOND        FAIR      82  77  83 CALM      30.07F HX  91
VICKSBURG      PTSUNNY   83  73  72 CALM      30.07S
$$

MSZ059>079-231800-
SOUTH MISSISSIPPI

CITY           SKY/WX    TMP DP  RH WIND       PRES   REMARKS
BROOKHAVEN     FAIR      82  72  69 S3        30.09S
COLUMBIA       FAIR      84  72  65 VRB3      30.06F
HATTIESBURG    SUNNY     84  73  69 VRB3      30.08F HX  90
MCCOMB         SUNNY     84  69  60 S5        30.07F
NATCHEZ        MOSUNNY   82  72  69 CALM      30.08S
PINE BELT      SUNNY     82  70  65 SW3       30.09S
$$

MSZ080>082-231800-
COASTAL MISSISSIPPI

CITY           SKY/WX    TMP DP  RH WIND       PRES   REMARKS
BILOXI         CLOUDY    82  72  71 W2        30.07R
PASCAGOULA     CLOUDY    81  76  84 S3        30.07R
GULFPORT       CLOUDY    83  71  67 VRB3      30.07R
$$



USA.gov is the U.S. government's official web portal to all federal, state and local government web resources and services.